FW8003 Weather Reports


time (UTC)temp
C
wind
direction
speed
KPH
gust
KPH
rain 1hr
cm
rain 24hr
cm
rain mn
cm
humidity
%
barometer
mb
20260502152017 17 341 1.6 6.4 0.00 1.09 0.00 77 1020.0
20260502151538 17 180 1.6 8.0 0.00 1.09 0.00 77 1019.8
20260502151017 17 352 1.6 8.0 0.00 1.09 0.00 79 1019.9
20260502150516 17 352 1.6 8.0 0.00 1.09 0.00 79 1019.9
20260502130515 11 23 1.6 6.4 0.00 1.75 0.00 95 1018.8
20260502123516 10 343 0.0 3.2 0.00 2.51 0.00 94 1018.1
20260502123035 10 0 0.0 1.6 0.00 2.51 0.00 94 1018.1
20260502122516 10 0 0.0 3.2 0.00 2.51 0.00 94 1018.0
20260502122016 10 0 0.0 3.2 0.00 2.51 0.00 94 1018.1
20260502121535 10 0 0.0 0.0 0.00 2.51 0.00 94 1017.9
20260502121018 10 0 0.0 0.0 0.00 2.51 0.00 94 1017.8
20260502120516 10 0 0.0 0.0 0.00 2.51 0.00 94 1017.8
20260502115517 10 0 0.0 0.0 0.00 3.25 0.00 94 1017.8
20260502115015 10 0 0.0 0.0 0.00 3.25 0.00 94 1017.7
20260502114536 10 0 0.0 0.0 0.00 3.25 0.00 94 1017.7
20260502114016 10 0 0.0 0.0 0.00 3.25 0.00 94 1017.6
20260502113519 10 0 0.0 0.0 0.00 3.25 0.00 94 1017.5
20260502113036 10 0 0.0 1.6 0.00 3.25 0.00 94 1017.5
20260502112516 10 0 0.0 1.6 0.00 3.25 0.00 94 1017.4
20260502112016 10 0 0.0 1.6 0.00 3.25 0.00 94 1017.3
20260502111535 10 0 0.0 1.6 0.00 3.25 0.00 94 1017.3
20260502111016 10 0 0.0 1.6 0.00 3.25 0.00 94 1017.2
20260502110516 10 0 0.0 1.6 0.00 3.25 0.00 93 1017.1
20260502110036 10 0 0.0 0.0 0.00 3.25 0.00 93 1017.0
20260502105516 10 0 0.0 0.0 0.00 3.48 0.00 93 1016.9
20260502105015 10 0 0.0 1.6 0.00 3.48 0.00 94 1016.9
20260502104535 10 0 0.0 1.6 0.00 3.48 0.00 93 1016.9
20260502104015 10 0 0.0 1.6 0.00 3.48 0.00 93 1016.8
20260502103517 10 0 0.0 1.6 0.00 3.48 0.00 93 1016.8
20260502103034 10 0 0.0 3.2 0.00 3.48 0.00 93 1016.7
20260502102515 10 0 0.0 3.2 0.00 3.48 0.00 93 1016.7
20260502102017 10 5 0.0 4.8 0.00 3.48 0.00 93 1016.8
20260502101535 10 5 1.6 4.8 0.00 3.48 0.00 93 1016.7
20260502101016 10 0 0.0 4.8 0.00 3.48 0.00 93 1016.6
20260502100516 10 33 0.0 6.4 0.00 3.48 0.00 93 1016.6
20260502091534 11 0 0.0 3.2 0.00 3.91 0.00 92 1015.9
20260502091017 11 9 0.0 3.2 0.00 3.91 0.00 92 1015.6
20260502090518 11 0 0.0 3.2 0.00 3.91 0.00 92 1015.7
20260502071018 11 0 0.0 3.2 0.00 4.50 0.00 93 1015.5
20260502070518 11 0 0.0 3.2 0.00 4.50 0.00 93 1015.5
20260502070047 11 284 0.0 3.2 0.00 4.50 0.00 93 1015.4
20260502065516 11 0 0.0 6.4 0.00 4.52 0.00 93 1015.3
20260502065016 11 269 1.6 9.7 0.00 4.52 0.00 93 1015.4
20260502064542 12 0 0.0 9.7 0.00 4.52 0.00 93 1015.3
20260502064016 12 277 1.6 9.7 0.00 4.52 0.00 93 1015.3
20260502063517 12 0 0.0 4.8 0.00 4.52 0.00 93 1015.3
20260502063036 12 0 0.0 6.4 0.00 4.52 0.00 93 1015.3
20260502062516 11 0 0.0 6.4 0.00 4.52 0.00 93 1015.3
20260502062018 11 324 1.6 6.4 0.00 4.52 0.00 94 1015.4
20260502061536 11 0 0.0 3.2 0.00 4.52 0.00 94 1015.2
20260502061015 11 355 0.0 3.2 0.00 4.52 0.00 94 1015.3
20260502060516 11 0 0.0 3.2 0.00 4.52 0.00 94 1015.3
20260502060035 11 0 0.0 6.4 0.00 4.52 0.00 94 1015.3
20260502055517 11 349 0.0 6.4 0.00 4.57 0.00 94 1015.4
20260502055018 11 228 0.0 4.8 0.00 4.57 0.00 94 1015.3
20260502054535 11 0 0.0 4.8 0.00 4.57 0.00 94 1015.3
20260502054016 11 184 0.0 4.8 0.00 4.57 0.00 94 1015.3
20260502053515 11 289 1.6 4.8 0.00 4.57 0.00 94 1015.2
20260502053032 11 0 0.0 6.4 0.00 4.57 0.00 94 1015.3
20260502052517 11 240 0.0 6.4 0.00 4.57 0.00 94 1015.3
20260502052017 11 32 1.6 9.7 0.00 4.57 0.00 94 1015.2
20260502051538 11 0 0.0 9.7 0.00 4.57 0.00 94 1015.3
20260502051018 11 271 1.6 8.0 0.00 4.57 0.00 94 1015.4
20260502050517 11 316 1.6 14.5 0.00 4.57 0.00 94 1015.4
20260502050035 12 312 4.8 14.5 0.00 4.57 0.00 94 1015.2
20260502045516 12 9 0.0 9.7 0.00 4.57 4.57 95 1015.1
20260502045019 12 329 3.2 16.1 0.00 4.57 4.57 94 1015.1
20260502044539 12 336 3.2 16.1 0.00 4.57 4.57 95 1015.2
20260502044015 12 0 1.6 8.0 0.00 4.57 4.57 95 1015.0
20260502043518 12 192 1.6 8.0 0.00 4.57 4.57 95 1015.1
20260502043041 12 0 3.2 8.0 0.00 4.57 4.57 95 1015.1
20260502042516 12 320 1.6 9.7 0.00 4.57 4.57 95 1015.1
20260502042018 12 0 1.6 9.7 0.00 4.57 4.57 95 1015.2
20260502041535 12 299 1.6 6.4 0.00 4.57 4.57 95 1015.3
20260502041015 12 322 1.6 4.8 0.00 4.57 4.57 95 1015.2
20260502040516 12 53 0.0 8.0 0.00 4.57 4.57 95 1015.2
20260502040035 12 0 0.0 8.0 0.00 4.57 4.57 95 1015.2
20260502035515 12 0 1.6 6.4 0.00 4.57 4.57 95 1015.2
20260502035016 12 346 0.0 6.4 0.00 4.57 4.57 95 1015.2
20260502034539 12 9 0.0 4.8 0.00 4.57 4.57 95 1015.3
20260502034019 12 326 0.0 8.0 0.00 4.57 4.57 95 1015.2
20260502033518 12 0 0.0 8.0 0.00 4.57 4.57 95 1015.3
20260502033040 12 303 1.6 12.9 0.00 4.57 4.57 95 1015.2
20260502032516 12 355 3.2 12.9 0.00 4.57 4.57 95 1015.1
20260502032016 12 343 1.6 8.0 0.00 4.57 4.57 95 1015.1
20260502031536 12 342 0.0 6.4 0.00 4.57 4.57 95 1015.1
20260502031018 12 303 1.6 6.4 0.00 4.57 4.57 95 1014.9
20260502030516 12 328 1.6 6.4 0.00 4.57 4.57 95 1014.7
20260502030035 12 344 1.6 9.7 0.00 4.57 4.57 95 1014.7
20260502025515 12 318 1.6 9.7 0.00 4.57 4.57 95 1014.5
20260502025015 12 338 1.6 9.7 0.00 4.57 4.57 95 1014.0
20260502024536 12 340 1.6 9.7 0.00 4.57 4.57 95 1013.9
20260502024017 12 0 0.0 9.7 0.00 4.57 4.57 95 1013.5
20260502023516 12 312 0.0 9.7 0.00 4.57 4.57 95 1013.3
20260502023034 12 286 1.6 9.7 0.00 4.57 4.57 95 1013.1
20260502022518 12 0 0.0 4.8 0.00 4.57 4.57 95 1013.3
20260502022016 12 318 0.0 8.0 0.03 4.57 4.57 95 1013.4
20260502021535 12 237 1.6 9.7 0.03 4.57 4.57 95 1013.4
20260502021018 12 325 1.6 9.7 0.03 4.57 4.57 95 1013.6
20260502020519 12 39 1.6 8.0 0.03 4.57 4.57 95 1013.5
20260502020036 12 217 1.6 12.9 0.03 4.57 4.57 95 1013.4
20260502015519 12 355 0.0 12.9 0.03 4.57 4.57 95 1013.5
20260502015017 12 306 1.6 14.5 0.03 4.57 4.57 95 1013.4
20260502014550 12 0 1.6 14.5 0.05 4.57 4.57 95 1013.5
20260502014017 12 0 1.6 12.9 0.05 4.57 4.57 95 1013.1
20260502013517 12 246 3.2 12.9 0.05 4.57 4.57 95 1012.9
20260502013032 12 0 1.6 11.3 0.05 4.57 4.57 95 1012.9
20260502012517 12 0 0.0 11.3 0.05 4.57 4.57 95 1013.2
20260502012017 12 179 1.6 14.5 0.05 4.55 4.55 95 1013.3
20260502011538 12 346 3.2 14.5 0.05 4.55 4.55 95 1013.3
20260502011017 12 0 1.6 12.9 0.05 4.55 4.55 95 1013.2
20260502010517 12 0 3.2 12.9 0.05 4.55 4.55 95 1012.9
20260502010036 12 36 3.2 12.9 0.05 4.55 4.55 95 1012.5
20260502005517 12 0 1.6 9.7 0.08 4.55 4.55 95 1012.2
20260502005017 12 304 3.2 8.0 0.08 4.52 4.52 95 1012.1
20260502004535 13 5 1.6 8.0 0.10 4.52 4.52 95 1012.3
20260502004017 13 49 1.6 6.4 0.13 4.52 4.52 95 1012.3
20260502003517 13 331 1.6 9.7 0.15 4.52 4.52 95 1012.4
20260502003035 13 355 1.6 16.1 0.15 4.52 4.52 95 1012.9
20260502002517 13 338 1.6 16.1 0.13 4.50 4.50 95 1012.9
20260502002018 13 330 3.2 16.1 0.13 4.50 4.50 95 1012.8
20260502001532 13 355 0.0 8.0 0.15 4.50 4.50 95 1012.7
20260502001018 13 0 3.2 9.7 0.15 4.50 4.50 95 1012.3
20260502000517 13 0 3.2 9.7 0.15 4.50 4.50 95 1012.1
20260502000045 13 292 1.6 6.4 0.15 4.47 4.47 95 1012.0
20260501235518 13 327 1.6 4.8 0.20 4.47 4.47 95 1011.8
20260501235017 13 346 0.0 4.8 0.18 4.45 4.45 95 1011.9
20260501234537 13 0 0.0 4.8 0.15 4.42 4.42 95 1011.8
20260501234019 14 320 1.6 4.8 0.10 4.37 4.37 95 1011.8
20260501233517 14 0 0.0 6.4 0.10 4.37 4.37 95 1011.9
20260501233036 14 35 0.0 6.4 0.10 4.37 4.37 95 1011.7
20260501232516 14 321 1.6 8.0 0.10 4.37 4.37 95 1011.5
20260501232023 14 0 1.6 12.9 0.08 4.34 4.34 95 1011.0
20260501231536 14 173 1.6 12.9 0.08 4.34 4.34 95 1010.7
20260501231016 14 96 1.6 12.9 0.08 4.34 4.34 95 1010.3
20260501230520 14 202 1.6 11.3 0.08 4.34 4.34 95 1010.4
20260501230034 14 0 0.0 4.8 0.05 4.29 4.29 95 1010.5
20260501225516 14 0 1.6 11.3 0.03 4.27 4.27 95 1010.7
20260501225017 14 48 1.6 11.3 0.03 4.27 4.27 95 1010.8
20260501224533 14 0 1.6 11.3 0.03 4.27 4.27 95 1010.6
20260501224016 14 246 1.6 14.5 0.03 4.27 4.27 95 1010.0
20260501223516 14 265 3.2 14.5 0.03 4.27 4.27 95 1009.2
20260501223041 14 207 3.2 14.5 0.05 4.27 4.27 95 1008.5
20260501222516 14 165 3.2 8.0 0.05 4.27 4.27 95 1008.6
20260501222019 14 246 1.6 11.3 0.05 4.27 4.27 95 1009.3
20260501221535 14 0 1.6 11.3 0.08 4.27 4.27 95 1009.8
20260501221016 14 263 0.0 6.4 0.08 4.27 4.27 95 1009.7
20260501220519 14 318 0.0 6.4 0.08 4.27 4.27 95 1010.0
20260501220035 14 234 3.2 6.4 0.08 4.24 4.24 95 1010.2
20260501215517 15 243 1.6 6.4 0.13 4.24 4.24 95 1010.3
20260501215017 14 0 1.6 6.4 0.13 4.24 4.24 95 1011.2
20260501214539 15 360 0.0 8.0 0.13 4.24 4.24 95 1011.0
20260501214017 15 258 1.6 8.0 0.13 4.24 4.24 95 1010.8
20260501213516 15 321 0.0 6.4 0.13 4.24 4.24 95 1011.0
20260501213032 15 338 1.6 6.4 0.10 4.22 4.22 95 1010.9
20260501212516 15 231 1.6 4.8 0.10 4.22 4.22 95 1010.5
20260501212016 15 333 0.0 12.9 0.10 4.22 4.22 95 1010.8
20260501211532 15 0 1.6 12.9 0.10 4.19 4.19 95 1010.9
20260501211018 15 5 1.6 8.0 0.10 4.19 4.19 95 1010.7
20260501210516 15 17 0.0 9.7 0.13 4.19 4.19 95 1010.2
20260501210031 15 0 1.6 9.7 0.13 4.17 4.17 95 1009.4
20260501205516 15 352 1.6 6.4 0.13 4.11 4.11 95 1008.2
20260501205017 15 0 1.6 6.4 0.15 4.11 4.11 95 1009.2
20260501204536 15 274 0.0 4.8 0.15 4.11 4.11 95 1010.1
20260501204015 15 350 0.0 8.0 0.15 4.11 4.11 95 1009.6
20260501203516 15 0 1.6 9.7 0.18 4.11 4.11 95 1009.8
20260501203036 15 0 1.6 9.7 0.18 4.11 4.11 95 1009.3
20260501202516 15 320 1.6 9.7 0.18 4.11 4.11 95 1009.4
20260501202016 15 284 1.6 6.4 0.18 4.11 4.11 95 1009.2
20260501201546 15 320 0.0 8.0 0.15 4.09 4.09 95 1009.8
20260501201017 15 292 1.6 8.0 0.15 4.09 4.09 95 1009.6
20260501200516 15 25 1.6 8.0 0.13 4.06 4.06 95 1009.9
20260501200035 15 328 1.6 6.4 0.08 4.01 4.01 95 1010.1
20260501195516 15 5 1.6 6.4 0.05 3.99 3.99 95 1010.6
20260501195016 15 342 1.6 9.7 0.03 3.96 3.96 95 1010.3
20260501194543 15 334 1.6 12.9 0.03 3.96 3.96 95 1009.8
20260501194019 15 5 3.2 12.9 0.03 3.96 3.96 95 1010.1
20260501193517 15 345 1.6 9.7 0.00 3.94 3.94 95 1009.4
20260501193037 16 24 1.6 6.4 0.00 3.94 3.94 95 1009.8
20260501192516 16 0 0.0 6.4 0.00 3.94 3.94 95 1010.0
20260501192016 16 121 1.6 6.4 0.00 3.94 3.94 95 1009.9
20260501191535 15 0 1.6 6.4 0.00 3.94 3.94 95 1009.4
20260501191017 15 355 0.0 6.4 0.00 3.94 3.94 95 1009.1
20260501190516 15 194 1.6 8.0 0.00 3.94 3.94 95 1009.0
20260501190035 16 0 1.6 8.0 0.00 3.94 3.94 95 1008.5
20260501185517 16 111 1.6 8.0 0.00 3.94 3.94 95 1008.7
20260501185017 16 339 1.6 8.0 0.00 3.94 3.94 95 1009.1
20260501184535 16 350 1.6 8.0 0.00 3.94 3.94 95 1009.2
20260501184018 16 172 1.6 8.0 0.03 3.94 3.94 95 1008.9
20260501183517 16 320 1.6 8.0 0.03 3.94 3.94 96 1008.3
20260501183047 16 42 1.6 11.3 0.05 3.94 3.94 95 1008.3
20260501182516 15 254 1.6 11.3 0.05 3.94 3.94 95 1008.1
20260501182021 15 0 3.2 12.9 0.05 3.94 3.94 95 1007.6
20260501181538 15 325 3.2 14.5 0.05 3.94 3.94 95 1007.5
20260501181018 15 140 3.2 16.1 0.08 3.94 3.94 95 1007.6
20260501180516 16 325 3.2 16.1 0.08 3.94 3.94 95 1007.1
20260501180042 16 319 3.2 16.1 0.08 3.94 3.94 96 1006.7
20260501175515 16 321 1.6 8.0 0.08 3.94 3.94 96 1008.2
20260501175017 16 159 1.6 9.7 0.08 3.94 3.94 95 1008.9
20260501174543 16 360 3.2 9.7 0.08 3.94 3.94 95 1009.5
20260501174017 16 0 0.0 4.8 0.05 3.91 3.91 96 1009.6
20260501173517 16 0 0.0 6.4 0.05 3.91 3.91 96 1010.0
20260501173032 16 340 0.0 6.4 0.03 3.89 3.89 95 1010.7
20260501172517 16 350 0.0 6.4 0.05 3.89 3.89 95 1010.9
20260501172022 15 0 1.6 8.0 0.05 3.89 3.89 95 1010.5
20260501171534 15 298 1.6 20.9 0.05 3.89 3.89 95 1010.7
20260501171017 16 350 3.2 20.9 0.05 3.86 3.86 95 1010.6
20260501170516 16 28 3.2 9.7 0.10 3.86 3.86 95 1010.2
20260501170048 16 0 1.6 9.7 0.13 3.86 3.86 95 1010.3
20260501165517 16 355 1.6 8.0 0.15 3.86 3.86 95 1010.8
20260501165017 16 239 1.6 8.0 0.20 3.86 3.86 95 1010.7
20260501164536 16 327 1.6 9.7 0.23 3.86 3.86 95 1010.8
20260501164017 16 261 1.6 9.7 0.28 3.86 3.86 95 1010.8
20260501163519 16 15 1.6 9.7 0.33 3.86 3.86 95 1010.9
20260501163040 16 308 1.6 8.0 0.33 3.86 3.86 95 1011.2
20260501162518 16 0 1.6 4.8 0.33 3.84 3.84 95 1011.6
20260501162017 16 360 1.6 4.8 0.36 3.84 3.84 95 1012.1
20260501161535 16 329 1.6 6.4 0.36 3.84 3.84 95 1012.4
20260501161019 16 0 0.0 6.4 0.33 3.81 3.81 95 1012.7
20260501160518 16 23 1.6 6.4 0.28 3.76 3.76 95 1012.9
20260501160034 16 0 0.0 6.4 0.25 3.73 3.73 95 1012.8
20260501155517 16 300 0.0 3.2 0.23 3.71 3.71 95 1012.8
20260501155020 16 0 0.0 3.2 0.18 3.66 3.66 95 1013.0
20260501154549 16 344 0.0 4.8 0.13 3.61 3.61 95 1013.0
20260501154017 16 0 0.0 4.8 0.08 3.56 3.56 95 1012.9
20260501153517 16 0 0.0 4.8 0.05 3.53 3.53 95 1012.9